timestamp,surface_pressure_avg,surface_temp_avg,battery_voltage,lat,long
2018-01-08 00:00:00+00:00,232.1214,2.46,12.81,47.84626,-54.09684
2018-01-08 00:10:00+00:00,236.5648,2.54,12.73,47.84626,-54.09684
2018-01-08 00:20:00+00:00,244.3148,2.6,12.81,47.84626,-54.09684
2018-01-08 00:30:00+00:00,248.2547,2.6,12.81,47.84626,-54.09684
2018-01-08 00:40:00+00:00,245.9898,2.6,12.81,47.84626,-54.09684
2018-01-08 00:50:00+00:00,247.3114,2.6,12.81,47.84626,-54.09684
2018-01-08 01:00:00+00:00,254.6931,2.5,12.73,47.84626,-54.09684
2018-01-08 01:10:00+00:00,260.6998,2.5,12.73,47.84626,-54.09684
2018-01-08 01:20:00+00:00,263.8148,2.5,12.81,47.84626,-54.09684
2018-01-08 01:30:00+00:00,268.4665,2.52,12.81,47.84626,-54.09684
2018-01-08 01:40:00+00:00,272.5681,2.51,12.81,47.84626,-54.09684
2018-01-08 01:50:00+00:00,276.0798,2.54,12.81,47.84626,-54.09684
2018-01-08 02:00:00+00:00,281.7564,2.59,12.73,47.84626,-54.09684
2018-01-08 02:10:00+00:00,290.7547,2.6,12.73,47.84626,-54.09684
2018-01-08 02:20:00+00:00,296.1014,2.6,12.81,47.84626,-54.09684
2018-01-08 02:30:00+00:00,297.168,2.66,12.81,47.84626,-54.09684
2018-01-08 02:40:00+00:00,305.0096,2.67,12.81,47.84626,-54.09684
2018-01-08 02:50:00+00:00,316.9529,2.7,12.81,47.84626,-54.09684
2018-01-08 03:00:00+00:00,321.2296,2.8,12.73,47.84626,-54.09684
2018-01-08 03:10:00+00:00,323.063,2.89,12.65,47.84626,-54.09684
2018-01-08 03:20:00+00:00,323.4229,2.9,12.73,47.84626,-54.09684
2018-01-08 03:30:00+00:00,326.7196,2.91,12.73,47.84626,-54.09684
2018-01-08 03:40:00+00:00,330.7113,2.92,12.81,47.84626,-54.09684
2018-01-08 03:50:00+00:00,332.2963,2.96,12.81,47.84626,-54.09684
2018-01-08 04:00:00+00:00,328.478,3.0,12.73,47.84626,-54.09684
2018-01-08 04:10:00+00:00,326.5579,3.0,12.65,47.84626,-54.09684
2018-01-08 04:20:00+00:00,330.6863,3.0,12.73,47.84626,-54.09684
2018-01-08 04:30:00+00:00,332.9147,3.0,12.73,47.84626,-54.09684
2018-01-08 04:40:00+00:00,333.0212,2.9,12.81,47.84626,-54.09684
2018-01-08 04:50:00+00:00,332.0546,2.9,12.81,47.84626,-54.09684
2018-01-08 05:00:00+00:00,330.4713,2.9,12.73,47.84626,-54.09684
2018-01-08 05:10:00+00:00,330.2646,2.9,12.65,47.84626,-54.09684
2018-01-08 05:20:00+00:00,330.1263,2.8,12.73,47.84626,-54.09684
2018-01-08 05:30:00+00:00,325.8613,2.7,12.73,47.84626,-54.09684
2018-01-08 05:40:00+00:00,325.1064,2.7,12.81,47.84626,-54.09684
2018-01-08 05:50:00+00:00,322.2196,2.7,12.81,47.84626,-54.09684
2018-01-08 06:00:00+00:00,318.318,2.7,12.73,47.84626,-54.09684
2018-01-08 06:10:00+00:00,315.5181,2.7,12.65,47.84626,-54.09684
2018-01-08 06:20:00+00:00,317.0747,2.7,12.73,47.84626,-54.09684
2018-01-08 06:30:00+00:00,316.0697,2.7,12.73,47.84626,-54.09684
2018-01-08 06:40:00+00:00,310.498,2.65,12.73,47.84626,-54.09684
2018-01-08 06:50:00+00:00,302.8597,2.6,12.81,47.84626,-54.09684
2018-01-08 07:00:00+00:00,294.3047,2.6,12.73,47.84626,-54.09684
2018-01-08 07:10:00+00:00,283.8014,2.63,12.65,47.84626,-54.09684
2018-01-08 07:20:00+00:00,273.528,2.67,12.73,47.84626,-54.09684
2018-01-08 07:30:00+00:00,261.3847,2.75,12.73,47.84626,-54.09684
2018-01-08 07:40:00+00:00,251.3681,2.87,12.73,47.84626,-54.09684
2018-01-08 07:50:00+00:00,242.3814,2.91,12.73,47.84626,-54.09684
2018-01-08 08:00:00+00:00,232.5531,3.0,12.65,47.84626,-54.09684
2018-01-08 08:10:00+00:00,222.0031,2.97,12.65,47.84626,-54.09684
2018-01-08 08:20:00+00:00,219.2365,2.9,12.73,47.84626,-54.09684
2018-01-08 08:30:00+00:00,217.6614,2.8,12.73,47.84626,-54.09684
2018-01-08 08:40:00+00:00,211.7298,2.79,12.73,47.84626,-54.09684
2018-01-08 08:50:00+00:00,210.8698,2.79,12.73,47.84626,-54.09684
2018-01-08 09:00:00+00:00,213.4698,2.8,12.65,47.84626,-54.09684
2018-01-08 09:10:00+00:00,213.0881,2.8,12.65,47.84626,-54.09684
2018-01-08 09:20:00+00:00,208.7115,2.7,12.73,47.84626,-54.09684
2018-01-08 09:30:00+00:00,210.8948,2.7,12.73,47.84626,-54.09684
2018-01-08 09:40:00+00:00,218.8981,2.7,12.73,47.84626,-54.09684
2018-01-08 09:50:00+00:00,220.4664,2.7,12.73,47.84626,-54.09684
2018-01-08 10:00:00+00:00,221.2331,2.6,12.65,47.84626,-54.09684
2018-01-08 10:10:00+00:00,226.2948,2.6,12.65,47.84626,-54.09684
2018-01-08 10:20:00+00:00,229.1481,2.6,12.73,47.84626,-54.09684
2018-01-08 10:30:00+00:00,231.0831,2.6,12.73,47.84626,-54.09684
2018-01-08 10:40:00+00:00,235.8565,2.6,12.73,47.84626,-54.09684
2018-01-08 10:50:00+00:00,238.0314,2.63,12.73,47.84626,-54.09684
2018-01-08 11:00:00+00:00,235.253,2.66,12.65,47.84626,-54.09684
2018-01-08 11:10:00+00:00,234.7631,2.6,12.65,47.84626,-54.09684
2018-01-08 11:20:00+00:00,237.1147,2.6,12.73,47.84626,-54.09684
2018-01-08 11:30:00+00:00,232.3431,2.6,12.73,47.84626,-54.09684
2018-01-08 11:40:00+00:00,226.0048,2.6,12.81,47.84626,-54.09684
2018-01-08 11:50:00+00:00,228.4081,2.6,12.89,47.84626,-54.09684
2018-01-08 12:00:00+00:00,226.8231,2.6,12.81,47.84626,-54.09684
2018-01-08 12:10:00+00:00,220.0547,2.58,12.65,47.84626,-54.09684
2018-01-08 12:20:00+00:00,224.2597,2.55,12.81,47.84626,-54.09684
2018-01-08 12:30:00+00:00,230.5214,2.58,12.81,47.84626,-54.09684
2018-01-08 12:40:00+00:00,228.5381,2.5,12.89,47.84626,-54.09684
2018-01-08 12:50:00+00:00,232.9314,2.5,12.97,47.84626,-54.09684
2018-01-08 13:00:00+00:00,243.4298,2.6,12.97,47.84626,-54.09684
2018-01-08 13:10:00+00:00,246.8697,2.63,13.21,47.84626,-54.09684
2018-01-08 13:20:00+00:00,250.7048,2.65,13.29,47.84626,-54.09684
2018-01-08 13:30:00+00:00,262.7081,2.6,13.29,47.84626,-54.09684
2018-01-08 13:40:00+00:00,273.0964,2.6,13.29,47.84626,-54.09684
2018-01-08 13:50:00+00:00,273.8714,2.6,13.44,47.84626,-54.09684
2018-01-08 14:00:00+00:00,281.1198,2.57,13.29,47.84626,-54.09684
2018-01-08 14:10:00+00:00,291.368,2.6,13.29,47.84626,-54.09684
2018-01-08 14:20:00+00:00,294.8281,2.5,13.53,47.84626,-54.09684
2018-01-08 14:30:00+00:00,301.9647,2.4,13.29,47.84626,-54.09684
2018-01-08 14:40:00+00:00,318.1163,2.42,13.53,47.84626,-54.09684
2018-01-08 14:50:00+00:00,327.7913,2.4,13.37,47.84626,-54.09684
2018-01-08 15:00:00+00:00,327.4163,2.38,13.76,47.84626,-54.09684
2018-01-08 15:10:00+00:00,329.728,2.4,13.29,47.84626,-54.09684
2018-01-08 15:20:00+00:00,339.038,2.4,13.29,47.84626,-54.09684
2018-01-08 15:30:00+00:00,341.093,2.4,13.29,47.84626,-54.09684
2018-01-08 15:40:00+00:00,339.3229,2.4,13.53,47.84626,-54.09684
2018-01-08 15:50:00+00:00,345.4279,2.39,13.53,47.84626,-54.09684
2018-01-08 16:00:00+00:00,350.6446,2.38,13.37,47.84626,-54.09684
2018-01-08 16:10:00+00:00,346.8013,2.34,13.44,47.84626,-54.09684
2018-01-08 16:20:00+00:00,345.3013,2.39,13.44,47.84626,-54.09684
2018-01-08 16:30:00+00:00,350.743,2.39,13.37,47.84626,-54.09684
2018-01-08 16:40:00+00:00,353.403,2.38,13.44,47.84626,-54.09684
2018-01-08 16:50:00+00:00,352.683,2.39,13.53,47.84626,-54.09684
2018-01-08 17:00:00+00:00,355.9496,2.4,13.44,47.84626,-54.09684
2018-01-08 17:10:00+00:00,355.468,2.39,13.44,47.84626,-54.09684
2018-01-08 17:20:00+00:00,352.458,2.39,13.68,47.84626,-54.09684
2018-01-08 17:30:00+00:00,352.1512,2.4,13.37,47.84626,-54.09684
2018-01-08 17:40:00+00:00,355.1446,2.38,13.44,47.84626,-54.09684
2018-01-08 17:50:00+00:00,350.4597,2.38,13.44,47.84626,-54.09684
2018-01-08 18:00:00+00:00,345.6447,2.4,13.6,47.84626,-54.09684
2018-01-08 18:10:00+00:00,345.3096,2.4,13.29,47.84626,-54.09684
2018-01-08 18:20:00+00:00,342.4529,2.39,13.37,47.84626,-54.09684
2018-01-08 18:30:00+00:00,334.133,2.4,13.44,47.84626,-54.09684
2018-01-08 18:40:00+00:00,330.7397,2.4,13.6,47.84626,-54.09684
2018-01-08 18:50:00+00:00,329.3246,2.39,13.68,47.84626,-54.09684
2018-01-08 19:00:00+00:00,324.3647,2.38,13.68,47.84626,-54.09684
2018-01-08 19:10:00+00:00,313.7797,2.4,13.53,47.84626,-54.09684
2018-01-08 19:20:00+00:00,304.3447,2.4,13.44,47.84626,-54.09684
2018-01-08 19:30:00+00:00,297.9696,2.4,13.29,47.84626,-54.09684
2018-01-08 19:40:00+00:00,291.7997,2.4,13.21,47.84626,-54.09684
2018-01-08 19:50:00+00:00,282.1198,2.2,13.13,47.84626,-54.09684
2018-01-08 20:00:00+00:00,273.3765,2.1,13.05,47.84626,-54.09684
2018-01-08 20:10:00+00:00,264.4681,2.09,12.97,47.84626,-54.09684
2018-01-08 20:20:00+00:00,254.2131,2.0,13.05,47.84626,-54.09684
2018-01-08 20:30:00+00:00,248.6731,2.0,12.97,47.84626,-54.09684
2018-01-08 20:40:00+00:00,247.0481,2.0,12.97,47.84626,-54.09684
2018-01-08 20:50:00+00:00,242.8814,2.0,12.97,47.84626,-54.09684
2018-01-08 21:00:00+00:00,238.7948,2.0,12.97,47.84626,-54.09684
2018-01-08 21:10:00+00:00,236.6531,2.0,12.89,47.84626,-54.09684
2018-01-08 21:20:00+00:00,235.0098,1.98,12.97,47.84626,-54.09684
2018-01-08 21:30:00+00:00,232.8881,1.9,12.97,47.84626,-54.09684
2018-01-08 21:40:00+00:00,231.7531,1.8,12.97,47.84626,-54.09684
2018-01-08 21:50:00+00:00,234.3914,1.8,12.97,47.84626,-54.09684
2018-01-08 22:00:00+00:00,237.1431,1.8,12.89,47.84626,-54.09684
2018-01-08 22:10:00+00:00,238.2314,1.85,12.81,47.84626,-54.09684
2018-01-08 22:20:00+00:00,238.4931,1.9,12.89,47.84626,-54.09684
2018-01-08 22:30:00+00:00,237.4864,1.9,12.89,47.84626,-54.09684
2018-01-08 22:40:00+00:00,236.6681,1.88,12.89,47.84626,-54.09684
2018-01-08 22:50:00+00:00,239.4198,1.8,12.97,47.84626,-54.09684
2018-01-08 23:00:00+00:00,239.8398,1.8,12.81,47.84626,-54.09684
2018-01-08 23:10:00+00:00,238.7565,1.75,12.81,47.84626,-54.09684
2018-01-08 23:20:00+00:00,239.5797,1.7,12.89,47.84626,-54.09684
2018-01-08 23:30:00+00:00,241.7864,1.7,12.89,47.84626,-54.09684
2018-01-08 23:40:00+00:00,239.1364,1.7,12.89,47.84626,-54.09684
2018-01-08 23:50:00+00:00,235.0048,1.73,12.89,47.84626,-54.09684
